Location: Foligno
(42.9600°N, 12.7050°E)
Time: 21:57:35
(UTC+01:00)

N. Korean satellite - Visible Passes

Search period start: 21 February 2019 00:00
Search period end: 03 March 2019 00:00
Orbit: 456 x 510 km, 97.2° (Epoch: 20 February)

Date Brightness Start Highest point End Pass type
(mag) Time Alt. Az. Time Alt. Az. Time Alt. Az.
22 Feb 6.7 06:20:51 10° NNE 06:24:19 77° E 06:27:44 10° S visible
22 Feb 10.0 18:31:45 10° SW 18:34:09 17° W 18:36:32 10° NW visible
23 Feb 8.4 05:56:20 10° NNE 05:59:31 34° E 06:02:39 10° SSE visible
24 Feb 9.8 05:32:18 10° NE 05:34:37 17° E 05:36:56 10° SE visible
26 Feb 7.0 06:15:17 10° NNE 06:18:43 64° E 06:22:06 10° S visible
26 Feb 9.9 18:25:55 10° SW 18:28:33 19° W 18:31:09 10° NW visible
27 Feb 8.8 05:50:51 10° NE 05:53:53 29° E 05:56:55 10° SSE visible
28 Feb 9.9 05:26:59 10° ENE 05:28:58 15° E 05:30:57 10° SE visible
01 Mar 10.7 18:46:52 10° WSW 18:47:50 11° W 18:48:48 10° WNW visible
02 Mar 7.4 06:09:41 10° NNE 06:13:04 53° E 06:16:26 10° S visible
